Weather History for Claxton, GA

Change the Weather History Date:

Sunday, December 30, 2012

  Actual Average (KSAV) Record (KSAV)
Temperature  
Mean Temperature 42 °F 50 °F  
Max Temperature 53 °F 60 °F 81 °F (1984)
Min Temperature 30 °F 39 °F 15 °F (1917)
Degree Days  
Heating Degree Days 24 16  
Month to date heating degree days 407  
Since 1 July heating degree days 674  
Cooling Degree Days 0 0  
Month to date cooling degree days 3  
Year to date cooling degree days 2452  
Growing Degree Days 0 (Base 50)    
Moisture  
Dew Point 31 °F    
Average Humidity 71    
Maximum Humidity 100    
Minimum Humidity 38    
Precipitation  
Precipitation 0.00 in 0.10 in 1.02 in (1893)
Month to date precipitation 2.85  
Year to date precipitation 47.86  
Sea Level Pressure  
Sea Level Pressure 30.38 in    
Wind  
Wind Speed 6 mph (NW)    
Max Wind Speed 13 mph    
Max Gust Speed 18 mph    
Visibility 10 miles    
Events      
T = Trace of Precipitation, MM = Missing Value Source: NWS Daily Summary

Daily Weather History Graph

Daily Weather History Graph

Search for Another Location

Airport:

Trip Planner

Search our weather history database for the weather conditions in past years. The results will help you decide how hot, cold, wet, or windy it might be!

Date:

Astronomy

Dec. 30, 2012 Rise Set
Actual Time 7:28 AM EST 5:32 PM EST
Civil Twilight 7:01 AM EST 5:59 PM EST
Nautical Twilight 6:30 AM EST 6:30 PM EST
Astronomical Twilight 6:00 AM EST 7:00 PM EST
Moon 7:53 PM EST (12/30) 8:44 AM EST (12/30)
Length of Visible Light 10h 58m
Length of Day
10h 04m
Waning Gibbous, 95% of the Moon is Illuminated
Dec 30
Waning Gibbous
Jan 4
Last Quarter
Jan 11
New
Jan 18
First Quarter
Jan 26
Full

Hourly Weather History & Observations

Time (EST) Temp. Windchill Dew Point Humidity Pressure Visibility Wind Dir Wind Speed Gust Speed Precip Events Conditions
12:15 AM 41.0 °F 33.9 °F 32.0 °F 70% 30.18 in 10.0 mi WNW 12.7 mph 18.4 mph N/A   Clear
12:35 AM 39.2 °F 32.0 °F 32.0 °F 75% 30.18 in 10.0 mi WNW 11.5 mph 17.3 mph N/A   Clear
1:15 AM 39.2 °F 32.0 °F 32.0 °F 75% 30.20 in 10.0 mi WNW 11.5 mph 18.4 mph N/A   Clear
1:35 AM 39.2 °F 32.0 °F 32.0 °F 75% 30.21 in 10.0 mi WNW 11.5 mph 17.3 mph N/A   Clear
1:55 AM 37.4 °F 29.8 °F 32.0 °F 81% 30.21 in 10.0 mi West 11.5 mph - N/A   Clear
2:15 AM 37.4 °F 30.3 °F 32.0 °F 81% 30.21 in 10.0 mi WNW 10.4 mph 17.3 mph N/A   Clear
2:35 AM 37.4 °F 29.8 °F 32.0 °F 81% 30.21 in 10.0 mi WNW 11.5 mph 17.3 mph N/A   Clear
8:55 AM 37.4 °F 33.8 °F 30.2 °F 75% 30.37 in 10.0 mi NW 4.6 mph - N/A   Clear
9:15 AM 39.2 °F 33.0 °F 30.2 °F 70% 30.38 in 10.0 mi NW 9.2 mph - N/A   Clear
9:35 AM 41.0 °F 34.7 °F 30.2 °F 65% 30.39 in 10.0 mi NW 10.4 mph - N/A   Clear
9:55 AM 41.0 °F 35.2 °F 30.2 °F 65% 30.41 in 10.0 mi NW 9.2 mph - N/A   Clear
10:15 AM 42.8 °F 37.5 °F 30.2 °F 61% 30.41 in 10.0 mi North 9.2 mph - N/A   Clear
10:35 AM 42.8 °F 37.5 °F 30.2 °F 61% 30.41 in 10.0 mi NNW 9.2 mph - N/A   Clear
10:55 AM 44.6 °F 41.4 °F 30.2 °F 57% 30.42 in 10.0 mi NW 5.8 mph - N/A   Clear
11:15 AM 44.6 °F - 30.2 °F 57% 30.42 in 10.0 mi Calm Calm - N/A   Clear
11:35 AM 46.4 °F 45.2 °F 30.2 °F 53% 30.42 in 10.0 mi North 3.5 mph - N/A   Clear
11:55 AM 48.2 °F - 30.2 °F 50% 30.42 in 10.0 mi NNE 5.8 mph - N/A   Clear
12:15 PM 48.2 °F - 30.2 °F 50% 30.41 in 10.0 mi WNW 3.5 mph - N/A   Clear
12:35 PM 50.0 °F - 30.2 °F 47% 30.40 in 10.0 mi Calm Calm - N/A   Clear
12:55 PM 50.0 °F - 30.2 °F 47% 30.40 in 10.0 mi NNW 4.6 mph - N/A   Clear
1:15 PM 50.0 °F - 30.2 °F 47% 30.39 in 10.0 mi Calm Calm - N/A   Clear
1:35 PM 51.8 °F - 30.2 °F 44% 30.38 in 10.0 mi NW 8.1 mph - N/A   Clear
1:55 PM 51.8 °F - 30.2 °F 44% 30.38 in 10.0 mi WNW 4.6 mph - N/A   Clear
2:15 PM 51.8 °F - 30.2 °F 44% 30.37 in 10.0 mi West 5.8 mph - N/A   Clear
2:55 PM 51.8 °F - 28.4 °F 41% 30.37 in 10.0 mi Calm Calm - N/A   Clear
3:15 PM 53.6 °F - 30.2 °F 41% 30.38 in 10.0 mi NW 4.6 mph - N/A   Clear
3:35 PM 53.6 °F - 28.4 °F 38% 30.38 in 10.0 mi NNW 3.5 mph - N/A   Clear
3:55 PM 53.6 °F - 28.4 °F 38% 30.39 in 10.0 mi NNW 3.5 mph - N/A   Clear
4:15 PM 53.6 °F - 28.4 °F 38% 30.39 in 10.0 mi Calm Calm - N/A   Clear
4:35 PM 51.8 °F - 28.4 °F 41% 30.39 in 10.0 mi NE 3.5 mph - N/A   Clear
4:55 PM 51.8 °F - 28.4 °F 41% 30.39 in 10.0 mi Calm Calm - N/A   Clear
5:15 PM 46.4 °F - 33.8 °F 62% 30.39 in 10.0 mi Calm Calm - N/A   Clear
5:35 PM 44.6 °F - 35.6 °F 71% 30.39 in 10.0 mi Calm Calm - N/A   Clear
5:55 PM 41.0 °F - 33.8 °F 76% 30.40 in 10.0 mi Calm Calm - N/A   Clear
6:15 PM 41.0 °F - 35.6 °F 81% 30.41 in 10.0 mi Calm Calm - N/A   Clear
6:35 PM 37.4 °F - 35.6 °F 93% 30.41 in 10.0 mi Calm Calm - N/A   Clear
6:55 PM 37.4 °F - 35.6 °F 93% 30.42 in 10.0 mi Calm Calm - N/A   Clear
7:15 PM 35.6 °F - 33.8 °F 93% 30.41 in 10.0 mi Calm Calm - N/A   Clear
7:35 PM 35.6 °F - 33.8 °F 93% 30.41 in 10.0 mi Calm Calm - N/A   Clear
7:55 PM 33.8 °F - 33.8 °F 100% 30.41 in 10.0 mi Calm Calm - N/A   Clear
8:15 PM 33.8 °F - 33.8 °F 100% 30.41 in 10.0 mi Calm Calm - N/A   Clear
8:35 PM 32.0 °F - 32.0 °F 100% 30.41 in 7.0 mi Calm Calm - N/A   Clear
8:55 PM 32.0 °F - 32.0 °F 100% 30.41 in 10.0 mi Calm Calm - N/A   Clear
9:15 PM 32.0 °F - 32.0 °F 100% 30.43 in 10.0 mi Calm Calm - N/A   Clear
9:35 PM 32.0 °F - 32.0 °F 100% 30.43 in 10.0 mi Calm Calm - N/A   Clear
9:55 PM 32.0 °F - 32.0 °F 100% 30.44 in 10.0 mi Calm Calm - N/A   Clear
10:15 PM 32.0 °F - 32.0 °F 100% 30.43 in 10.0 mi Calm Calm - N/A   Clear
10:35 PM 32.0 °F - 32.0 °F 100% 30.43 in 10.0 mi Calm Calm - N/A   Clear
10:55 PM 32.0 °F - 32.0 °F 100% 30.43 in 10.0 mi Calm Calm - N/A   Clear
11:15 PM 30.2 °F - 30.2 °F 100% 30.42 in 10.0 mi Calm Calm - N/A   Clear
11:35 PM 30.2 °F - 30.2 °F 100% 30.41 in 10.0 mi Calm Calm - N/A   Clear
11:55 PM 30.2 °F - 30.2 °F 100% 30.41 in 10.0 mi Calm Calm - N/A   Clear